Dewpoint
67 65 65 65 65 66 67 68 69 69 69 69 70 71 70 70 70 69 69 69 68 67
67 66 64 64 66 67 68 68 69 70 70 70 70 70 70 70 69 69 69 69 68 68
66 66 66 65 64 67 68 69 69 69 69 69 67 69 70 70 70 69 69 69 69 69
67 67 67 66 66 68 69 68 68 68 67 67 65 65 69 70 70 69 69 69 69 69
67 67 67 67 67 68 69 69 68 68 66 65 68 69 69 69 70 69 69 69 70 69
67 67 67 68 68 68 69 69 69 68 67 66 68 69 70 70 70 70 70 70 69 70
67 68 68 68 68 69 69 68 68 68 67 67 67 70 70 70 70 70 70 70 71 70
67 68 68 68 68 69 69 68 68 69 69 69 70 70 70 69 69 69 69 70 70 70
68 69 68 68 68 68 68 69 69 68 68 68 70 70 69 69 69 69 68 68 69 70
67 67 68 68 68 68 68 68 68 68 69 68 69 67 68 69 69 68 68 68 68 69
67 67 67 67 68 68 68 68 69 69 69 67 63 64 64 65 68 67 64 62 62 62
66 66 66 66 67 68 68 67 67 66 66 64 62 61 62 66 67 62 59 58 58 58
65 65 67 67 66 66 65 63 62 61 61 61 61 59 62 65 64 60 58 58 58 58
66 66 67 66 65 64 62 61 60 58 58 57 57 59 61 64 64 60 59 58 57 57
Wind_Speed
15 16 14 12 10 10 12 11 8 8 10 12 10 7 5 5 4 3 5 6 4 3
16 15 17 14 9 8 9 11 9 8 10 11 10 9 8 6 5 4 5 5 4 4
19 17 15 13 14 12 10 10 10 8 8 9 9 8 7 5 5 4 4 3 3 4
19 17 14 14 14 14 12 10 10 9 9 11 10 9 8 7 5 5 7 6 6 6
17 17 18 17 15 13 13 10 12 10 11 11 10 7 9 8 6 7 8 7 5 7
18 18 19 18 15 15 14 14 13 13 13 12 10 8 8 8 8 9 8 7 7 8
19 20 19 18 17 16 15 14 13 13 12 12 11 10 9 9 8 8 8 8 9 8
17 16 16 17 17 16 15 15 14 13 13 13 13 12 12 9 9 10 10 9 8 9
14 13 15 15 16 16 16 15 14 16 16 15 12 10 11 10 10 9 7 7 5 4
7 8 7 7 9 14 16 16 18 18 16 15 5 1 3 5 6 4 2 2 3 2
6 8 8 5 3 12 13 16 16 14 10 8 5 3 2 2 3 4 5 5 4 4
13 14 11 7 5 6 10 7 5 8 9 9 5 3 1 3 6 7 7 8 8 5
15 15 14 17 8 3 7 11 12 12 11 9 5 6 4 2 8 9 8 8 8 11
12 11 11 11 9 9 12 15 13 13 11 12 8 8 8 4 6 9 9 8 7 8
Wind_Direction
210 204 211 213 218 219 216 222 220 227 226 239 243 244 244 236 258 257 259 248 242 303
215 215 215 215 220 223 218 222 224 228 227 226 226 232 230 237 258 263 267 270 272 278
218 219 226 217 218 213 221 220 214 212 216 220 228 234 232 245 257 260 269 268 276 278
213 216 222 228 224 218 218 216 214 203 205 219 231 237 240 236 243 255 268 272 265 273
212 211 220 225 226 224 229 221 225 218 222 232 234 228 229 243 236 239 261 270 273 286
213 211 217 223 225 224 224 224 221 221 228 240 238 236 239 243 239 233 243 256 260 269
208 212 218 216 218 224 224 226 226 226 235 246 246 243 243 237 241 250 252 252 251 253
213 208 209 214 219 220 224 231 233 234 239 242 239 236 236 238 242 245 253 254 255 250
202 201 210 213 220 221 227 229 232 237 239 243 242 251 249 243 246 244 255 279 299 307
162 176 189 199 236 237 230 227 232 237 235 236 201 339 251 220 213 225 264 325 343 56
175 141 115 97 261 262 242 232 224 227 225 181 118 98 127 190 160 119 87 73 64 84
217 230 224 260 316 280 237 227 166 134 138 141 117 352 312 150 132 124 98 79 57 64
234 239 223 223 240 136 153 136 122 107 91 80 74 18 34 93 129 120 111 88 66 50
190 195 165 141 132 141 151 135 118 108 102 95 70 48 50 85 138 139 118 98 84 59